Regional Weather Roundup
Issued by NWS

Home | Current Version | Previous Version | Graphics & Text | Print | Product List | Glossary On
Versions: 1 2 3 4 5 6 7 8 9 10 11 12 13 14 15 16 17 18 19 20 21 22 23 24 25 26 27 28 29 30 31 32 33 34 35 36 37 38 39 40 41 42 43 44 45 46 47 48 49 50
585
ASUS43 KLMK 232102
RWRKY
KENTUCKY REGIONAL WEATHER ROUNDUP
NATIONAL WEATHER SERVICE LOUISVILLE KY
400 PM EST THU FEB 23 2017

NOTE "FAIR" INDICATES FEW OR NO CLOUDS BELOW 12,000 FEET
WITH NO SIGNIFICANT WEATHER AND/OR OBSTRUCTIONS TO VISIBILITY.

KYZ001>023-026-027-061>063-070>075-232200-
WESTERN AND SOUTH CENTRAL KENTUCKY

CITY           SKY/WX    TMP DP  RH WIND       PRES   REMARKS
PADUCAH        PTSUNNY   72  53  51 S9        29.67F
HENDERSON      CLOUDY    66  54  63 S13G20    29.69F
OWENSBORO      CLOUDY    72  57  59 S13       29.71F
HOPKINSVILLE   MOSUNNY   73  55  52 S12G21    29.72F
BOWLING GREEN  PTSUNNY   74  56  53 S12       29.75F
GLASGOW        NOT AVBL
$$

KYZ024-025-028>034-038-045-046-053-232200-
NORTH CENTRAL KENTUCKY

CITY           SKY/WX    TMP DP  RH WIND       PRES   REMARKS
LOUISVILLE/SDF CLOUDY    70  55  59 S10       29.74F
LOUISVILLE/LOU CLOUDY    70  56  61 SE8       29.75F
FORT KNOX      CLOUDY    68  57  66 S7        29.74S
$$

KYZ035>037-039>044-047>052-055>060-089>105-232200-
NORTHEAST KENTUCKY

CITY           SKY/WX    TMP DP  RH WIND       PRES   REMARKS
LEXINGTON      CLOUDY    69  56  62 S9        29.79F
COVINGTON      CLOUDY    69  55  60 S15G22    29.76S
FRANKFORT      CLOUDY    70  55  59 S9        29.76F
$$

KYZ054-064>069-076>088-106>120-232200-
SOUTHEAST KENTUCKY

CITY           SKY/WX    TMP DP  RH WIND       PRES   REMARKS
JACKSON        CLOUDY    67  54  63 CALM      29.83F
LONDON         PTSUNNY   71  52  50 VRB3      29.80F
SOMERSET       PTSUNNY   70  54  56 SW3       29.80F
MIDDLESBORO    MOSUNNY   71  53  53 S5        29.82S
MONTICELLO     PTCLDY    74  56  53 W14       29.80F
$$





USA.gov is the U.S. government's official web portal to all federal, state and local government web resources and services.